Retour au catalogue

STARLINK-35423

ActifCommunicationsVLEO
NORAD 65873·PAYLOAD·🇺🇸 United States

Lancé Oct 3, 2025 depuis Vandenberg Space Force Base

Loading…

Prochains Passages (prochaines 24 heures)

TLE

FraisSource: CelesTrak SupGP

Époque: Sep 14, 2026, 21:17 UTC

1 65873C 25223V   26257.88729167 -.00052525  00000+0 -15518-2 0  2572
2 65873  53.1565 131.6025 0001292  86.4175 351.9781 15.34417366    14

Suivez STARLINK-35423 en temps réel avec AllMySat

Download on the App Store